| time (UTC) | temp F | wind direction | speed MPH | gust MPH | rain 1hr in | rain 24hr in | rain mn in | humidity % | barometer mb |
| 20260504081544 | 39 | 214 | 2.0 | 8.0 | 0.00 | 0.00 | 0.00 | 93 | 1011.1 |
| 20260504050007 | 38 | 195 | 1.0 | 7.0 | 0.00 | 0.00 | 0.00 | 93 | 1009.6 |
| 20260504044504 | 38 | 195 | 1.0 | 6.0 | 0.00 | 0.00 | 0.00 | 93 | 1009.2 |
| 20260504043049 | 38 | 174 | 2.0 | 8.0 | 0.00 | 0.00 | 0.00 | 92 | 1009.4 |
| 20260504041542 | 39 | 186 | 2.0 | 7.0 | 0.00 | 0.00 | 0.00 | 92 | 1009.4 |
| 20260504040027 | 39 | 191 | 2.0 | 10.0 | 0.00 | 0.00 | 0.00 | 92 | 1009.3 |
| 20260504034524 | 39 | 218 | 2.0 | 8.0 | 0.00 | 0.00 | 0.00 | 92 | 1009.2 |
| 20260504033023 | 39 | 162 | 2.0 | 5.0 | 0.00 | 0.00 | 0.00 | 92 | 1009.1 |
| 20260504031525 | 39 | 195 | 3.0 | 6.0 | 0.00 | 0.00 | 0.00 | 92 | 1008.7 |
| 20260504030022 | 39 | 203 | 1.0 | 5.0 | 0.00 | 0.00 | 0.00 | 92 | 1008.5 |
| 20260504024521 | 39 | 184 | 2.0 | 10.0 | 0.00 | 0.00 | 0.00 | 92 | 1008.3 |
| 20260504023018 | 39 | 217 | 3.0 | 7.0 | 0.00 | 0.00 | 0.00 | 92 | 1008.4 |
| 20260504021517 | 40 | 183 | 2.0 | 8.0 | 0.00 | 0.00 | 0.00 | 92 | 1008.1 |
| 20260504020002 | 40 | 214 | 2.0 | 5.0 | 0.00 | 0.00 | 0.00 | 92 | 1007.9 |
| 20260504014606 | 41 | 193 | 2.0 | 6.0 | 0.00 | 0.00 | 0.00 | 91 | 1007.9 |
| 20260504013059 | 42 | 194 | 0.0 | 3.0 | 0.00 | 0.00 | 0.00 | 91 | 1007.7 |
| 20260504011555 | 43 | 170 | 1.0 | 4.0 | 0.00 | 0.00 | 0.00 | 91 | 1007.7 |
| 20260504010049 | 44 | 181 | 1.0 | 4.0 | 0.00 | 0.00 | 0.00 | 91 | 1007.6 |
| 20260504004548 | 45 | 194 | 1.0 | 5.0 | 0.00 | 0.00 | 0.00 | 91 | 1007.5 |
| 20260504003051 | 45 | 195 | 1.0 | 6.0 | 0.00 | 0.00 | 0.00 | 89 | 1007.4 |
| 20260504001545 | 46 | 222 | 1.0 | 5.0 | 0.00 | 0.00 | 0.00 | 88 | 1007.1 |
| 20260504000046 | 47 | 197 | 0.0 | 5.0 | 0.00 | 0.00 | 0.00 | 86 | 1007.1 |
| 20260503234519 | 48 | 170 | 2.0 | 5.0 | 0.00 | 0.00 | 0.00 | 82 | 1007.1 |
| 20260503233002 | 48 | 210 | 1.0 | 6.0 | 0.00 | 0.00 | 0.00 | 85 | 1007.2 |
| 20260503231559 | 50 | 191 | 3.0 | 5.0 | 0.00 | 0.00 | 0.00 | 80 | 1007.6 |
| 20260503230042 | 50 | 143 | 2.0 | 5.0 | 0.00 | 0.00 | 0.00 | 81 | 1007.5 |
| 20260503224540 | 50 | 207 | 1.0 | 6.0 | 0.00 | 0.00 | 0.00 | 81 | 1007.5 |
| 20260503223023 | 49 | 217 | 2.0 | 6.0 | 0.00 | 0.00 | 0.00 | 83 | 1007.5 |
| 20260503221520 | 48 | 207 | 2.0 | 6.0 | 0.00 | 0.00 | 0.00 | 84 | 1007.3 |
| 20260503220119 | 48 | 165 | 3.0 | 7.0 | 0.00 | 0.00 | 0.00 | 85 | 1007.4 |
| 20260503214604 | 49 | 180 | 3.0 | 5.0 | 0.00 | 0.00 | 0.00 | 86 | 1007.3 |
| 20260503213110 | 50 | 190 | 2.0 | 5.0 | 0.00 | 0.00 | 0.00 | 84 | 1007.3 |
| 20260503211541 | 50 | 201 | 1.0 | 5.0 | 0.00 | 0.00 | 0.00 | 82 | 1007.4 |
| 20260503210041 | 49 | 207 | 2.0 | 6.0 | 0.00 | 0.00 | 0.00 | 87 | 1007.3 |
| 20260503204519 | 49 | 203 | 1.0 | 6.0 | 0.00 | 0.00 | 0.00 | 83 | 1007.5 |
| 20260503203025 | 49 | 207 | 3.0 | 6.0 | 0.00 | 0.00 | 0.00 | 82 | 1007.7 |
| 20260503201558 | 51 | 190 | 2.0 | 6.0 | 0.00 | 0.00 | 0.00 | 80 | 1007.6 |
| 20260503200056 | 53 | 162 | 2.0 | 6.0 | 0.00 | 0.00 | 0.00 | 76 | 1007.7 |
| 20260503194542 | 56 | 170 | 2.0 | 6.0 | 0.00 | 0.00 | 0.00 | 72 | 1007.8 |
| 20260503193038 | 57 | 194 | 3.0 | 6.0 | 0.00 | 0.00 | 0.00 | 58 | 1008.0 |
| 20260503191517 | 57 | 132 | 3.0 | 5.0 | 0.00 | 0.00 | 0.00 | 56 | 1008.1 |
| 20260503190018 | 58 | 174 | 3.0 | 6.0 | 0.00 | 0.00 | 0.00 | 46 | 1008.2 |
| 20260503184558 | 58 | 150 | 3.0 | 7.0 | 0.00 | 0.00 | 0.00 | 45 | 1008.2 |
| 20260503183058 | 57 | 200 | 3.0 | 7.0 | 0.00 | 0.00 | 0.00 | 49 | 1008.3 |
| 20260503181538 | 57 | 158 | 3.0 | 7.0 | 0.00 | 0.00 | 0.00 | 46 | 1008.3 |
| 20260503180040 | 57 | 143 | 3.0 | 11.0 | 0.00 | 0.00 | 0.00 | 45 | 1008.3 |
| 20260503174520 | 57 | 162 | 3.0 | 6.0 | 0.00 | 0.00 | 0.00 | 42 | 1008.4 |
| 20260503173036 | 58 | 141 | 3.0 | 7.0 | 0.00 | 0.00 | 0.00 | 38 | 1008.4 |
| 20260503171600 | 58 | 198 | 3.0 | 6.0 | 0.00 | 0.00 | 0.00 | 38 | 1008.4 |